Regional Weather Roundup
Issued by NWS

Home | Current Version | Previous Version | Text Only | Print | Product List | Glossary Off
Versions: 1 2 3 4 5 6 7 8 9 10 11 12 13 14 15 16 17 18 19 20 21 22 23 24 25 26 27 28 29 30 31 32 33 34 35 36 37 38 39 40 41 42 43 44 45 46 47 48 49 50

437
ASUS45 KSLC 200710
RWRUT

UTAH REGIONAL WEATHER ROUNDUP
NATIONAL WEATHER SERVICE SALT LAKE CITY UT
100 AM MDT WED SEP 20 2017

UTZ001>011-023>025-200800-

NORTHERN UTAH

CITY           SKY/WX    TMP DP  RH WIND       PRES   REMARKS
BRIGHAM CITY   CLEAR     44  37  76 CALM      29.96S
HILL AFB       PTCLDY    45  36  70 E13       29.95S
LOGAN          CLEAR     43  37  79 S3        29.95F
OGDEN          CLEAR     46  38  73 S3        29.94S
SALT LAKE CITY MOCLDY    50  43  77 CALM      29.94S
TOOELE VALLEY  CLEAR     43  37  81 S5        29.95S
WENDOVER       CLEAR     49  25  39 CALM      29.96R
HEBER CITY     MOCLDY    41  36  81 CALM      29.98S
WEST JORDAN    MOCLDY    46  40  81 CALM      29.96S

$$

UTZ011>015-024>027-200800-

CENTRAL/NORTHEAST UTAH

CITY           SKY/WX    TMP DP  RH WIND       PRES   REMARKS
PROVO AIRPORT  PTCLDY    46  40  79 CALM      29.96R
MOAB/CANYONLAN CLEAR     62  37  39 SW7       29.84R
DELTA          CLEAR     50  34  53 NE6       29.94S
PRICE          PTCLDY    52  32  46 NW13      29.96R
ROOSEVELT      CLOUDY    52  36  54 CALM      29.99R
VERNAL         CLOUDY    50  38  63 N6        29.97R

$$

UTZ013>016-019>022-027-200800-

SOUTHERN UTAH

CITY           SKY/WX    TMP DP  RH WIND       PRES   REMARKS
BRYCE CANYON   CLEAR     52  34  50 SW10      30.06S
CEDAR CITY     CLEAR     51  39  63 W9        29.95R
MILFORD        CLEAR     51  33  50 NE7       29.94R
ST GEORGE      PTSUNNY   71  37  28 SE13      29.82R
BLANDING         N/A     60  32  34 SW3       30.03R

$$

REGIONAL REPORTS     COLORADO/ARIZONA

CITY           SKY/WX    TMP DP  RH WIND       PRES   REMARKS
CRAIG, CO      CLOUDY    41  36  82 E3        30.04S
GRAND JUNCTION MOCLDY    60  36  40 NE6       29.88R
RIFLE, CO      PTCLDY    52  36  54 NW7       29.94R
MONTROSE, CO   CLEAR     54  33  45 SE9       29.94R
CORTEZ, CO     CLEAR     64  21  19 SW15      29.98R
PAGE, AZ       CLEAR     69  35  28 SW5       29.89R
GRAND CANYON   CLEAR     42  30  62 CALM      30.09S
KINGMAN, AZ    CLEAR     66  36  32 S10       29.88S
FLAGSTAFF, AZ  CLEAR     54  32  43 W9        30.13S

$$

REGIONAL REPORTS    NEVADA/IDAHO/WYOMING

CITY           SKY/WX    TMP DP  RH WIND       PRES   REMARKS
LAS VEGAS, NV  CLEAR     79  42  26 S9G18     29.75S
ELY, NY        CLEAR     39  21  48 S6        30.01S WCI  35
ELKO, NV       CLEAR     40  20  44 CALM      29.96S
POCATELLO, ID  CLEAR     45  30  55 S13       29.92
BURLEY, ID     CLEAR     39  33  79 S9        29.91S WCI  33
FORT BRIDGER,    N/A     34  32  92 S8        30.04S WCI  27
EVANSTON, WY   CLOUDY    34  29  82 S7        30.01S WCI  28
ROCK SPRINGS,  CLOUDY    34  30  85 SW7       30.01S WCI  28
KEMMERER, WY     N/A     32  28  86 SW6       30.00S WCI  26

$$




USA.gov is the U.S. government's official web portal to all federal, state and local government web resources and services.